TimeCST,TemperatureF,Dew PointF,Humidity,Sea Level PressureIn,VisibilityMPH,Wind Direction,Wind SpeedMPH,Gust SpeedMPH,PrecipitationIn,Events,Conditions,WindDirDegrees,DateUTC
12:15 AM,27.3,21.6,79,30.18,10.0,SSW,8.1,-,N/A,,Clear,200,2012-12-12 06:15:00
12:35 AM,28.0,21.7,77,30.18,10.0,SSW,8.1,-,N/A,,Clear,210,2012-12-12 06:35:00
12:55 AM,28.4,21.9,77,30.19,10.0,SSW,8.1,-,N/A,,Clear,210,2012-12-12 06:55:00
1:15 AM,28.0,21.7,77,30.19,10.0,SSW,6.9,-,N/A,,Clear,210,2012-12-12 07:15:00
1:35 AM,27.3,21.6,79,30.19,10.0,SSW,6.9,-,N/A,,Clear,200,2012-12-12 07:35:00
1:55 AM,27.3,21.7,80,30.20,10.0,SSW,6.9,-,N/A,,Clear,200,2012-12-12 07:55:00
2:15 AM,27.5,21.6,78,30.20,10.0,SSW,6.9,-,N/A,,Clear,210,2012-12-12 08:15:00
2:35 AM,27.5,21.6,78,30.21,10.0,SSW,6.9,-,N/A,,Clear,210,2012-12-12 08:35:00
2:55 AM,26.6,21.2,80,30.20,10.0,SSW,6.9,-,N/A,,Clear,200,2012-12-12 08:55:00
3:15 AM,26.4,21.2,81,30.20,10.0,SSW,6.9,-,N/A,,Clear,210,2012-12-12 09:15:00
3:35 AM,27.1,21.2,78,30.21,10.0,SSW,6.9,-,N/A,,Clear,210,2012-12-12 09:35:00
3:55 AM,27.5,21.2,77,30.21,10.0,SSW,8.1,-,N/A,,Clear,200,2012-12-12 09:55:00
4:15 AM,26.6,21.2,80,30.21,10.0,SSW,6.9,-,N/A,,Clear,200,2012-12-12 10:15:00
4:35 AM,26.6,21.0,79,30.22,10.0,SSW,5.8,-,N/A,,Clear,210,2012-12-12 10:35:00
4:55 AM,25.7,20.5,81,30.22,10.0,SSW,5.8,-,N/A,,Clear,200,2012-12-12 10:55:00
5:15 AM,24.4,19.9,83,30.22,10.0,SSW,5.8,-,N/A,,Clear,200,2012-12-12 11:15:00
5:35 AM,24.6,20.3,84,30.22,10.0,South,6.9,-,N/A,,Clear,190,2012-12-12 11:35:00
5:55 AM,23.9,20.1,85,30.23,10.0,South,8.1,-,N/A,,Clear,180,2012-12-12 11:55:00
6:15 AM,25.5,21.0,83,30.24,10.0,South,8.1,-,N/A,,Clear,180,2012-12-12 12:15:00
6:35 AM,25.5,20.8,82,30.24,10.0,South,8.1,-,N/A,,Clear,180,2012-12-12 12:35:00
6:55 AM,24.8,21.2,86,30.25,10.0,South,9.2,-,N/A,,Clear,180,2012-12-12 12:55:00
7:15 AM,25.9,21.0,82,30.25,10.0,South,8.1,-,N/A,,Clear,180,2012-12-12 13:15:00
7:35 AM,25.9,21.2,82,30.25,10.0,South,10.4,-,N/A,,Clear,180,2012-12-12 13:35:00
7:55 AM,26.4,21.7,82,30.26,10.0,South,8.1,-,N/A,,Clear,190,2012-12-12 13:55:00
8:15 AM,28.2,22.6,80,30.27,10.0,South,9.2,-,N/A,,Clear,190,2012-12-12 14:15:00
8:35 AM,30.2,23.0,75,30.27,10.0,South,10.4,-,N/A,,Clear,180,2012-12-12 14:35:00
8:55 AM,31.5,23.9,74,30.27,10.0,South,10.4,-,N/A,,Clear,170,2012-12-12 14:55:00
9:15 AM,32.4,24.4,73,30.28,10.0,South,10.4,-,N/A,,Clear,180,2012-12-12 15:15:00
9:35 AM,34.5,25.0,68,30.28,10.0,South,10.4,-,N/A,,Clear,180,2012-12-12 15:35:00
9:55 AM,36.5,25.9,65,30.29,10.0,South,11.5,-,N/A,,Clear,190,2012-12-12 15:55:00
10:15 AM,38.1,26.2,62,30.29,10.0,South,9.2,-,N/A,,Clear,190,2012-12-12 16:15:00
10:35 AM,41.0,26.6,57,30.29,10.0,South,11.5,-,N/A,,Clear,180,2012-12-12 16:35:00
10:55 AM,41.5,25.5,53,30.28,10.0,South,10.4,-,N/A,,Clear,180,2012-12-12 16:55:00
11:15 AM,42.8,25.5,51,30.28,10.0,South,13.8,-,N/A,,Clear,170,2012-12-12 17:15:00
11:35 AM,43.7,25.3,48,30.27,10.0,South,15.0,-,N/A,,Clear,170,2012-12-12 17:35:00
11:55 AM,44.6,24.4,45,30.27,10.0,South,15.0,-,N/A,,Clear,180,2012-12-12 17:55:00
12:15 PM,45.0,23.4,43,30.26,10.0,South,16.1,-,N/A,,Clear,190,2012-12-12 18:15:00
12:35 PM,46.4,24.8,43,30.26,10.0,South,13.8,18.4,N/A,,Clear,190,2012-12-12 18:35:00
12:55 PM,46.2,23.9,42,30.25,10.0,South,11.5,-,N/A,,Clear,190,2012-12-12 18:55:00
1:15 PM,46.8,24.1,41,30.25,10.0,South,12.7,18.4,N/A,,Clear,190,2012-12-12 19:15:00
1:35 PM,47.1,24.6,41,30.24,10.0,South,15.0,-,N/A,,Clear,180,2012-12-12 19:35:00
1:55 PM,47.5,24.1,40,30.23,10.0,South,15.0,-,N/A,,Clear,180,2012-12-12 19:55:00
2:15 PM,47.7,24.1,40,30.22,10.0,South,13.8,-,N/A,,Clear,190,2012-12-12 20:15:00
2:35 PM,47.7,22.8,38,30.22,10.0,South,13.8,-,N/A,,Clear,180,2012-12-12 20:35:00
2:55 PM,47.7,23.4,38,30.22,10.0,South,15.0,-,N/A,,Clear,180,2012-12-12 20:55:00
3:15 PM,47.3,24.1,40,30.22,10.0,South,12.7,-,N/A,,Clear,180,2012-12-12 21:15:00
3:35 PM,46.6,23.9,41,30.22,10.0,South,11.5,-,N/A,,Clear,170,2012-12-12 21:35:00
3:55 PM,45.3,24.8,45,30.22,10.0,South,10.4,-,N/A,,Clear,170,2012-12-12 21:55:00
4:15 PM,43.5,25.3,49,30.22,10.0,SSE,10.4,-,N/A,,Clear,160,2012-12-12 22:15:00
4:35 PM,41.0,24.8,53,30.22,10.0,South,10.4,-,N/A,,Clear,170,2012-12-12 22:35:00
4:55 PM,38.7,24.8,58,30.22,10.0,South,10.4,-,N/A,,Clear,170,2012-12-12 22:55:00
5:15 PM,37.9,24.6,59,30.22,10.0,South,9.2,-,N/A,,Clear,170,2012-12-12 23:15:00
5:35 PM,37.6,24.4,59,30.22,10.0,SSE,9.2,-,N/A,,Clear,160,2012-12-12 23:35:00
5:55 PM,36.9,24.4,61,30.22,10.0,SSE,10.4,-,N/A,,Clear,160,2012-12-12 23:55:00
6:15 PM,36.5,24.8,63,30.22,10.0,South,11.5,-,N/A,,Clear,170,2012-12-13 00:15:00
6:35 PM,35.6,24.8,65,30.23,10.0,SSE,11.5,-,N/A,,Clear,160,2012-12-13 00:35:00
6:55 PM,34.9,25.0,67,30.23,10.0,SSE,10.4,-,N/A,,Clear,160,2012-12-13 00:55:00
7:15 PM,34.2,25.0,69,30.23,10.0,SSE,9.2,-,N/A,,Clear,160,2012-12-13 01:15:00
7:35 PM,33.8,24.8,70,30.23,10.0,South,10.4,-,N/A,,Clear,170,2012-12-13 01:35:00
7:55 PM,34.2,25.3,70,30.23,10.0,SSE,10.4,-,N/A,,Clear,160,2012-12-13 01:55:00
8:15 PM,34.0,25.5,71,30.24,10.0,South,10.4,-,N/A,,Clear,170,2012-12-13 02:15:00
8:35 PM,33.8,26.6,75,30.24,10.0,South,10.4,-,N/A,,Clear,170,2012-12-13 02:35:00
8:55 PM,34.2,26.1,72,30.24,10.0,South,9.2,-,N/A,,Clear,170,2012-12-13 02:55:00
9:15 PM,33.8,26.1,73,30.24,10.0,South,10.4,-,N/A,,Clear,170,2012-12-13 03:15:00
9:35 PM,34.3,26.2,72,30.24,10.0,SSE,10.4,-,N/A,,Clear,160,2012-12-13 03:35:00
9:55 PM,33.8,26.1,73,30.25,10.0,South,9.2,-,N/A,,Clear,170,2012-12-13 03:55:00
10:15 PM,33.4,25.9,74,30.26,10.0,South,10.4,-,N/A,,Clear,180,2012-12-13 04:15:00
10:35 PM,33.8,26.1,73,30.26,10.0,South,11.5,-,N/A,,Clear,170,2012-12-13 04:35:00
10:55 PM,33.4,26.1,74,30.26,10.0,South,11.5,-,N/A,,Clear,170,2012-12-13 04:55:00
11:15 PM,33.3,26.1,75,30.27,10.0,South,10.4,-,N/A,,Clear,180,2012-12-13 05:15:00
11:35 PM,33.1,25.7,74,30.27,10.0,South,10.4,-,N/A,,Clear,180,2012-12-13 05:35:00
11:55 PM,32.2,25.7,77,30.26,10.0,South,10.4,-,N/A,,Clear,170,2012-12-13 05:55:00